{"data":{"norad_id":59187,"intl_designator":"2024-045K","name":"STARLINK-31514","alt_names":[],"object_type":"PAYLOAD","status":"ACTIVE","operator":null,"country":"US","launch_date":"2024-03-10","launch_site_code":"AFETR","launch_vehicle":null,"mission":null,"orbit_class":"UNKNOWN","rcs_meters":null,"size_class":null,"mass_kg":null,"dimensions":null,"purposes":["comms"],"wikipedia_slug":null,"has_3d_model":false,"image_url":null,"decayed_at":null,"tle_current":{"epoch":"2026-09-19T21:48:23.715648Z","epoch_age_seconds":209949,"freshness":"STALE","line1":"1 59187U 24045K   26262.90860782  .00003713  00000+0  14429-3 0  9999","line2":"2 59187  42.9986  75.7861 0001376 273.0974  86.9720 15.27597280142862","mean_motion":15.2759728,"eccentricity":0.0001376,"inclination_deg":42.9986,"raan_deg":75.7861,"arg_perigee_deg":273.0974,"mean_anomaly_deg":86.972,"bstar":0.00014429,"rev_number":14286,"period_min":94.265682379324,"perigee_km":482.05326190385,"apogee_km":483.94144607807,"semimajor_km":6861.134353991,"source":"CELESTRAK","updated_at":"2026-09-21T09:00:34.063462Z"}}}